Wind_Speed
35 30 27 23 23 20 18 18 20 20 20 19 19 18 18 17 16 16 14 12 11 13 13 12 12 18 20 21 22 22 22 25 26 26 28 29 28 27 28 27 25 25 27
36 32 25 24 25 19 19 22 23 22 21 20 20 18 18 16 14 12 10 11 11 7 9 13 15 19 21 21 21 27 28 28 27 25 25 25 23 22 23 25 25 23 23
34 31 25 28 24 22 22 27 26 22 23 22 23 23 21 19 17 15 12 8 8 7 6 14 16 20 22 23 28 28 26 24 25 24 25 24 23 23 23 23 24 26 24
29 30 29 29 27 25 30 28 26 24 27 26 27 26 26 24 22 22 19 16 21 23 22 16 19 23 28 30 28 26 24 25 24 24 23 23 22 22 22 20 19 18 19
30 31 30 29 28 29 30 29 28 30 30 30 30 28 27 27 28 24 24 28 31 30 28 28 31 30 29 29 27 26 24 23 22 21 21 21 21 22 23 21 20 17 18
30 29 31 29 29 33 28 27 29 29 31 33 31 29 27 25 25 27 28 32 36 41 39 38 36 32 28 28 26 24 22 22 21 21 22 22 22 22 21 21 21 20 19
30 30 30 30 35 32 31 31 31 35 32 33 31 29 25 23 23 23 23 26 31 33 33 31 30 29 27 26 23 22 21 20 20 20 21 21 21 21 22 21 19 19 18
29 30 31 36 33 34 32 33 34 34 34 26 18 19 4 9 18 18 17 20 23 25 26 25 25 23 23 24 24 22 19 18 19 18 19 19 19 20 19 18 18 17 17
29 30 34 37 34 35 36 35 35 37 32 17 25 8 4 3 7 9 12 14 16 19 21 22 22 21 20 19 18 20 19 16 16 15 16 16 17 16 17 17 17 16 15
31 29 34 35 35 36 38 37 35 35 37 30 20 9 7 14 4 3 5 9 11 14 16 18 19 19 17 16 14 16 16 15 14 13 13 14 14 14 15 15 15 15 15
33 30 33 34 35 37 37 37 35 31 34 33 25 18 15 13 13 7 3 7 9 8 11 13 14 14 15 15 14 14 14 12 12 12 12 12 12 12 12 13 12 13 13
33 32 33 34 35 36 37 37 35 30 32 31 29 21 23 10 15 8 5 8 12 6 8 10 12 13 14 15 15 12 8 9 11 11 12 12 12 11 11 11 11 11 11
36 37 36 36 36 34 35 34 34 30 28 30 29 22 18 14 23 14 16 10 5 8 6 8 11 13 13 14 14 13 8 9 11 12 12 12 12 12 11 10 9 9 10
37 38 39 36 35 34 34 35 34 31 29 27 28 21 19 15 19 19 18 23 4 3 6 7 13 13 13 14 13 12 11 13 13 12 12 12 12 12 11 10 10 9 9
40 40 40 38 36 35 33 34 35 34 32 28 28 24 21 18 16 17 16 27 19 4 5 14 11 18 18 15 14 14 14 14 14 13 13 12 12 10 9 9 8 8 9
42 44 42 41 38 35 33 33 35 34 32 30 29 27 23 19 16 17 16 22 12 11 4 11 17 21 20 19 15 14 13 14 13 13 10 9 8 8 7 6 5 6 7
37 39 42 41 40 39 37 35 35 35 32 31 30 28 24 22 20 18 18 21 17 14 15 7 18 21 23 23 19 14 14 13 13 11 11 11 9 7 5 4 4 5 5
41 43 42 40 39 40 38 38 35 31 31 31 31 29 28 25 21 19 20 22 20 17 14 19 20 27 24 23 21 19 14 11 12 12 12 10 8 6 4 3 3 3 3
38 37 38 39 37 33 25 22 22 25 27 26 22 25 27 26 23 21 21 19 18 17 15 17 17 26 25 23 22 21 18 15 14 14 11 8 7 5 4 3 2 2 1
37 38 38 39 38 35 35 39 33 31 31 22 34 30 26 25 26 24 22 20 19 17 15 19 20 26 25 23 23 24 21 19 16 13 9 7 6 5 4 4 4 3 2
36 38 38 38 40 41 40 39 38 39 39 42 39 34 31 29 25 25 26 24 20 20 21 24 23 25 24 25 26 23 23 19 13 13 11 10 7 6 5 4 4 4 4
33 35 35 38 38 37 37 40 38 38 36 36 34 29 28 26 26 23 22 20 22 25 26 24 23 24 21 24 23 22 21 19 7 14 13 11 8 8 7 7 7 8 5
36 36 36 36 35 36 38 36 35 36 35 34 34 32 29 26 26 26 25 24 24 22 21 26 29 29 26 25 28 23 23 23 8 9 15 11 11 9 8 8 9 8 5
37 38 37 36 36 34 32 31 33 32 32 32 31 30 29 29 28 29 28 26 23 22 20 16 17 19 16 19 27 27 24 19 10 11 13 8 11 8 8 9 10 8 9
35 37 37 37 36 34 31 32 33 33 31 30 29 29 29 28 27 26 27 27 24 21 19 16 14 13 15 20 23 24 23 21 8 9 11 8 8 9 11 12 10 7 8
22 32 32 33 33 34 33 34 31 32 30 30 28 27 27 29 27 27 27 28 26 22 22 21 19 19 19 20 20 20 22 23 10 7 11 8 9 6 3 5 7 8 8
Wind_Direction
155 153 144 138 138 142 148 137 132 129 123 118 114 113 108 102 102 107 117 113 114 125 134 135 131 120 115 113 112 109 105 98 97 97 94 92 89 82 78 76 74 73 76
155 153 144 153 138 145 152 139 132 125 121 122 115 109 104 106 104 103 110 124 126 128 131 152 145 129 123 118 116 108 104 100 98 95 90 85 83 79 76 73 73 74 73
164 158 147 147 147 158 148 133 122 126 120 116 109 106 103 99 98 100 102 114 117 127 140 165 146 134 128 122 112 106 102 102 100 96 90 86 80 77 74 75 76 73 73
168 155 151 157 161 158 146 143 136 129 120 118 111 104 100 97 97 98 96 96 99 100 101 112 129 125 121 115 109 105 101 95 89 84 83 81 81 79 77 77 79 78 71
168 163 162 164 166 153 149 150 142 135 127 118 111 104 100 95 92 94 96 100 100 108 111 110 109 106 105 105 102 100 95 91 88 84 81 80 79 77 77 75 76 78 71
164 164 168 166 162 151 152 152 142 139 134 125 114 104 99 94 94 91 92 100 100 105 112 108 107 101 96 94 94 92 89 89 87 85 83 80 78 78 77 75 72 72 71
168 172 171 165 156 160 156 152 150 145 135 133 115 99 87 89 88 84 90 92 97 104 110 112 107 110 107 100 91 90 90 90 88 85 83 83 81 80 77 74 71 71 70
170 178 173 165 165 161 159 160 160 147 145 139 137 122 102 70 77 80 92 98 101 106 108 110 112 110 108 106 105 99 93 91 90 86 86 84 84 82 77 72 72 71 68
175 180 174 170 171 170 167 171 167 158 157 157 151 138 132 146 125 69 90 102 109 114 116 120 119 114 112 110 112 105 102 98 92 88 86 86 88 84 81 79 72 72 71
181 183 178 176 177 177 176 177 175 168 166 162 172 153 149 148 143 134 88 105 120 124 124 125 127 126 126 126 121 123 111 101 96 96 94 93 93 90 84 74 75 71 67
186 185 184 181 183 184 184 182 179 179 178 172 175 159 141 148 141 138 150 147 122 126 137 141 141 139 140 141 146 137 117 102 103 102 100 99 97 94 86 82 79 73 67
186 187 188 187 188 189 189 186 185 187 187 186 187 176 162 161 164 147 123 149 146 147 154 155 158 155 156 155 153 148 140 127 108 107 107 104 100 101 95 87 83 77 71
186 191 189 189 191 192 193 190 188 192 190 194 193 186 182 186 179 160 138 137 143 156 161 183 173 167 167 166 166 159 164 155 117 115 113 109 110 106 102 97 93 85 79
189 193 192 193 194 194 195 196 195 195 192 197 193 185 184 181 179 187 165 152 105 140 177 176 192 185 187 185 186 179 199 164 133 128 124 122 119 113 112 104 94 89 78
193 196 196 196 195 196 198 198 199 199 199 198 193 190 188 178 178 190 195 188 151 151 189 186 179 194 197 200 193 188 185 165 147 142 136 133 127 125 112 107 99 91 87
197 200 200 201 201 200 200 200 200 203 204 200 192 189 191 188 187 196 199 196 194 160 143 180 198 192 191 179 176 187 180 167 145 148 158 149 146 143 129 119 108 96 94
203 198 199 202 202 201 201 202 203 202 203 199 194 195 194 192 193 199 197 194 197 192 146 143 193 184 183 181 175 183 171 164 159 146 141 142 153 149 148 146 138 115 101
211 209 206 202 199 194 195 201 202 202 202 199 199 194 192 189 191 195 197 194 196 200 174 156 170 178 190 183 184 171 171 177 169 150 151 152 153 151 143 150 151 150 127
208 206 207 203 195 194 198 215 221 208 205 199 207 197 192 189 187 190 194 193 191 193 191 175 161 182 183 182 179 175 171 177 178 174 169 171 168 181 177 192 211 221 211
210 209 208 208 205 208 203 206 199 208 210 218 216 213 209 199 193 189 190 190 190 186 184 172 163 173 178 179 185 178 173 180 184 189 192 197 198 206 220 230 240 254 274
209 210 207 208 209 205 205 203 201 207 206 202 204 204 202 202 196 190 186 181 184 182 174 168 158 166 175 177 186 185 183 180 190 202 205 214 215 216 217 231 259 296 292
202 206 204 204 204 207 209 209 207 205 203 202 197 196 194 191 190 183 183 188 193 192 180 165 166 169 185 189 192 192 187 178 186 206 205 212 223 224 235 260 272 293 279
197 201 205 203 205 206 205 206 207 202 199 198 196 193 187 188 186 180 177 172 177 186 200 192 180 183 183 198 195 194 195 188 194 188 197 203 213 227 234 260 279 298 202
194 199 199 199 200 200 200 201 200 198 195 195 195 194 191 185 185 185 181 177 177 178 183 183 185 185 195 203 199 197 192 189 179 179 192 195 207 223 225 255 276 291 207
191 197 197 198 197 190 188 186 191 187 188 189 190 192 192 187 184 186 183 173 173 177 180 186 180 176 180 184 190 189 183 182 173 196 199 201 208 230 243 252 261 268 233
192 191 193 198 196 187 178 179 190 185 180 180 184 184 188 187 173 180 184 179 170 167 161 151 150 148 161 170 181 196 192 191 176 176 207 204 202 223 245 221 229 251 262
Height
841 847 852 855 858 861 863 866 869 872 874 877 878 880 882 884 885 885 887 887 889 890 891 894 895 897 899 900 901 902 903 904 905 907 906 907 907 907 907 907 907 907 907
840 846 852 855 858 861 863 867 870 873 876 878 880 884 885 886 887 888 889 888 890 892 891 895 897 897 899 902 904 905 906 907 908 910 910 911 910 911 911 911 911 911 911
841 846 850 856 859 860 864 868 872 874 876 881 883 886 888 888 889 890 891 891 891 890 892 893 896 899 901 904 906 908 910 911 912 914 913 913 915 914 915 915 914 914 914
842 846 850 854 857 861 865 868 872 875 878 882 885 888 890 891 893 893 893 893 892 893 895 896 899 900 904 905 907 910 913 915 916 917 917 917 917 917 918 918 917 917 917
842 846 849 852 856 862 866 869 874 875 880 884 888 891 894 895 896 898 897 896 896 896 900 901 904 907 907 908 911 914 917 918 919 919 920 921 920 920 920 921 920 920 920
841 844 848 852 857 863 867 871 873 878 881 884 889 893 897 900 902 902 901 901 900 899 904 905 907 909 914 914 915 918 921 921 923 922 923 923 923 924 924 924 924 923 923
839 841 846 852 857 861 865 870 872 876 882 886 887 898 902 904 905 907 907 907 904 907 908 910 912 913 916 918 922 922 924 925 926 927 926 927 927 927 927 927 927 927 926
837 839 844 850 854 859 864 867 870 875 880 885 888 894 905 911 910 912 913 913 913 914 914 916 916 918 920 922 922 925 927 929 929 930 930 930 930 930 929 930 930 930 930
835 837 843 847 852 856 859 864 867 870 877 883 887 888 900 906 913 918 918 918 918 918 919 920 921 921 923 925 928 927 930 933 931 932 933 932 932 932 932 933 932 932 932
832 837 841 845 849 853 856 861 866 869 872 876 883 886 888 891 904 920 921 921 921 921 922 922 923 924 925 928 928 930 933 933 933 934 935 934 935 934 934 934 934 934 934
829 834 839 843 846 850 855 859 864 868 872 875 878 883 888 892 895 903 918 921 922 923 923 924 925 926 927 928 930 931 932 934 934 935 936 936 936 936 935 936 936 936 936
825 831 836 839 843 847 852 857 862 866 871 874 878 881 883 886 891 895 906 916 918 923 923 924 925 927 928 928 929 931 932 933 934 934 935 936 937 937 937 937 937 937 936
819 824 830 835 839 844 850 855 860 864 868 872 876 879 883 884 887 891 896 908 914 922 923 924 925 926 927 928 928 930 931 933 934 935 935 936 936 937 938 938 938 937 936
812 818 824 830 836 841 846 851 857 861 865 869 874 878 880 883 884 888 891 898 912 917 919 920 922 924 925 926 927 928 930 931 933 934 935 935 936 936 937 937 937 936 936
806 813 820 826 832 837 843 847 852 857 862 866 870 873 877 880 883 886 889 891 894 911 915 916 918 920 922 924 925 926 928 929 930 932 933 934 934 934 935 935 935 935 934
801 806 814 821 827 834 839 843 848 853 858 862 866 869 872 876 879 884 887 891 892 894 906 908 911 913 919 923 924 925 927 929 930 931 932 934 934 934 934 935 935 935 934
798 802 807 814 820 826 833 839 843 847 853 857 862 865 868 873 876 880 884 887 890 892 895 903 906 911 915 919 922 925 926 928 929 930 932 932 933 934 933 934 934 934 934
792 797 802 809 815 820 826 833 838 843 847 853 858 860 861 866 872 876 881 883 886 889 891 896 903 907 912 916 919 922 924 926 928 930 931 932 932 932 933 935 935 934 932
785 790 793 801 807 807 819 834 838 837 846 847 858 859 858 861 866 870 877 880 883 885 889 891 899 904 909 914 917 920 922 924 926 927 929 930 931 932 932 933 933 933 931
780 785 791 797 800 804 808 821 820 831 838 837 848 852 855 857 859 864 872 875 879 882 887 890 897 904 908 912 915 917 920 921 924 926 928 929 929 930 930 931 931 931 930
774 781 786 793 798 804 807 811 814 821 827 834 842 844 846 854 857 860 865 868 874 877 882 887 893 902 907 909 911 915 918 919 922 924 926 928 928 928 928 929 929 929 928
768 776 780 786 791 795 800 806 809 817 821 830 834 840 846 849 855 858 861 865 869 874 878 881 887 894 901 904 910 913 915 918 921 921 923 925 926 926 926 926 926 925 925
762 768 775 779 785 790 796 799 805 811 818 823 829 836 840 846 851 855 860 861 866 871 875 877 879 885 891 897 903 909 912 913 915 917 920 922 924 924 923 923 923 923 923
755 763 769 774 780 786 790 795 799 806 814 820 825 831 836 842 847 851 854 859 865 868 873 877 880 882 887 893 899 903 907 912 914 916 918 920 920 922 921 921 920 920 921
752 758 763 770 775 780 787 793 797 803 810 816 822 828 833 839 846 851 854 857 862 868 872 876 880 884 887 890 896 901 905 909 913 913 915 916 917 919 919 918 918 918 918
754 753 759 766 772 778 784 787 791 796 803 812 819 825 831 838 843 848 851 854 859 864 868 873 879 884 886 890 894 899 902 905 909 911 911 914 914 915 916 915 915 914 914